Hourly Weather Roundup
Issued by NWS

Home | Current Version | Previous Version | Text Only | Print | Product List | Glossary On
Versions: 1 2 3 4 5 6 7 8 9 10 11 12 13 14 15 16 17 18 19 20 21 22 23 24 25 26 27 28 29 30 31 32 33 34 35 36 37 38 39 40 41 42 43 44 45 46 47 48 49 50
000
NZUS43 KILX 051210
HWRCRS

CRS HOURLY WEATHER ROUNDUP
NATIONAL WEATHER SERVICE, LINCOLN IL
700 AM CDT TUE MAY 05 2015


CITY           SKY/WX    TMP DP  RH WIND       PRES   REMARKS
CHAMPAIGN      CLOUDY    63  56  78 VRB5      30.18R
LAWRENCEVILLE  MOSUNNY   62  55  77 S6        30.22R
PEORIA         CLOUDY    63  60  90 E5        30.14R FOG
SPRINGFIELD    CLOUDY    65  57  75 N6        30.16R
$$


CITY           SKY/WX    TMP DP  RH WIND       PRES   REMARKS
BLOOMINGTON    CLOUDY    62  61  97 NE6       30.17R
DECATUR        CLOUDY    64  56  75 SW6       30.18R
EFFINGHAM      PTSUNNY   64  52  65 CALM      30.21R
FLORA          MOSUNNY   62  55  75 S3        30.21R
GALESBURG      CLOUDY    61  60  98 SE6       30.14R FOG
JACKSONVILLE   CLOUDY    64  58  81 SE5       30.15R
LACON          CLOUDY    59  57  95 E8        30.14R FOG
LINCOLN        CLOUDY    63  60  87 S3        30.14R
LITCHFIELD     PTSUNNY   61  53  74 S7        30.18R

CITY           SKY/WX    TMP DP  RH WIND       PRES   REMARKS
MACOMB         CLOUDY    62  62  99 SE6       30.17R FOG
MATTOON        PTSUNNY   63  53  70 S6        30.18R
MOLINE         CLOUDY    58  56  93 E8        30.13R FOG
OLNEY          PTSUNNY   63  54  72 S3        30.21R
PARIS          MOSUNNY   65  54  68 SW9       30.20R THUNDER
PONTIAC        FOG       61  61  99 E12       30.17S VSB 1
QUINCY         PTSUNNY   64  61  90 SE5       30.14R
RANTOUL        CLOUDY    65  58  79 SW3       30.18R
ROBINSON       MOSUNNY   63  53  71 S8        30.22R
TAYLORVILLE    CLOUDY    64  54  68 CALM      30.18R
TERRE HAUTE    MOSUNNY   61  55  81 S3        30.21R
$$


CITY           SKY/WX    TMP DP  RH WIND       PRES   REMARKS
BURLINGTON     PTSUNNY   61  61 100 S6        30.13R FOG
CHICAGO        LGT RAIN  50  49  96 NE9       30.20F FOG
DES MOINES     FOG       62  61  96 S8        30.10R VSB 1
EVANSVILLE     MOSUNNY   60  55  83 CALM      30.24R
INDIANAPOLIS   PTSUNNY   65  56  72 S7        30.21R
KANSAS CITY    MOCLDY    60  59  96 SE8       30.09S FOG
MILWAUKEE      LGT RAIN  44  39  82 NE9       30.27R FOG
ST LOUIS       PTSUNNY   68  55  63 S7        30.17R
$$




USA.gov is the U.S. government's official web portal to all federal, state and local government web resources and services.